This demonstration page uses our WeatherBlox Daily Observations layout. Learn more.

Left ArrowRight Arrow

39.01783, -85.05884

Hourly Observations for July 20, 2021

Temp ( °F °C ) Dew Point ( °F °C ) Humidity (%) Winds ( mph kmh ) Pressure ( in mb ) Visibility ( mi km ) Precip ( " mm )
12:52 am 00:52 Clear 73 22.8 61 16.1 66 66 N 6 9 30.06 1018 9 14 0.00 0.00
1:52 am 01:52 Clear 70 21.1 61 16.1 73 73 N 7 11 30.05 1018 9 14 0.00 0.00
2:52 am 02:52 Clear 70 21.1 61 16.1 73 73 NNW 3 6 30.04 1017 9 14 0.00 0.00
3:52 am 03:52 Clear 69 20.6 62 16.7 78 78 NNW 6 9 30.03 1017 9 14 0.00 0.00
4:52 am 04:52 Clear 67 19.4 62 16.7 84 84 NNW 3 6 30.01 1016 8 13 0.00 0.00
5:52 am 05:52 Clear 67 19.4 62 16.7 84 84 NNW 7 11 30.03 1017 8 13 0.00 0.00
6:52 am 06:52 Sunny 68 20 62 16.7 81 81 Calm 30.04 1017 7 11 0.00 0.00
7:52 am 07:52 Hazy 69 20.6 62 16.7 78 78 NNW 3 6 30.04 1017 6 10 0.00 0.00
8:52 am 08:52 Hazy 73 22.8 64 17.8 74 74 NNE 3 6 30.05 1018 6 10 0.00 0.00
9:52 am 09:52 Mostly Sunny 75 23.9 65 18.3 71 71 N 6 9 30.06 1018 7 11 0.00 0.00
10:52 am 10:52 Mostly Sunny 79 26.1 64 17.8 60 60 N 8 13 30.05 1018 7 11 0.00 0.00
11:52 am 11:52 Mostly Sunny 81 27.2 64 17.8 57 57 NNW 10 17 30.05 1018 8 13 0.00 0.00
12:52 pm 12:52 Mostly Sunny 82 27.8 63 17.2 53 53 N 7 11 30.03 1017 8 13 0.00 0.00
1:52 pm 13:52 Mostly Sunny 83 28.3 62 16.7 49 49 NW 7 11 30.02 1017 7 11 0.00 0.00
2:52 pm 14:52 Mostly Sunny 83 28.3 64 17.8 53 53 NNW 8 13 30.01 1016 7 11 0.00 0.00
3:52 pm 15:52 Hazy 84 28.9 64 17.8 51 51 Calm 29.98 1015 6 10 0.00 0.00
4:52 pm 16:52 Hazy 85 29.4 63 17.2 48 48 Calm 29.98 1015 6 10 0.00 0.00
5:52 pm 17:52 Hazy 84 28.9 64 17.8 51 51 N 9 15 29.97 1015 6 10 0.00 0.00
6:52 pm 18:52 Sunny 83 28.3 64 17.8 53 53 NNW 8 13 29.96 1015 7 11 0.00 0.00
7:52 pm 19:52 Mostly Sunny 80 26.7 62 16.7 54 54 NNW 9 15 29.97 1015 8 13 0.00 0.00
8:52 pm 20:52 Mostly Sunny 78 25.6 62 16.7 58 58 NW 7 11 29.98 1015 8 13 0.00 0.00
9:52 pm 21:52 Clear 75 23.9 62 16.7 64 64 NW 7 11 29.99 1016 9 14 0.00 0.00
10:52 pm 22:52 Clear 75 23.9 62 16.7 64 64 NNW 6 9 30.01 1016 9 14 0.00 0.00
11:52 pm 23:52 Clear 71 21.7 62 16.7 73 73 Calm 30.00 1016 9 14 0.00 0.00

Powered by AerisWeather